RH
91 82 80 76 64 66 63 89 99 73 97 98 99 96 92 66 52 60 52 43 46 46 50 52 56 51 40 32 27 38 34 46 51 43 32 28 29 35 36 53 50 48 47 42
83 81 80 70 63 65 75 90 97 74 98 99 100 98 86 60 54 58 64 59 49 39 51 60 51 44 36 35 34 37 38 57 64 49 40 34 38 35 33 35 39 48 63 43
82 85 77 63 63 64 79 87 100 92 98 94 89 100 95 80 49 51 60 57 45 47 56 47 52 49 46 39 35 34 36 41 48 52 39 32 43 37 34 36 56 50 43 34
82 78 64 61 63 63 83 89 99 90 98 97 97 83 84 81 76 50 53 65 52 63 66 64 59 52 48 47 42 45 42 55 45 35 27 30 31 34 33 36 36 49 42 34
80 70 66 60 63 65 86 97 99 85 91 80 100 94 74 74 79 73 73 81 68 56 52 56 66 58 53 56 51 54 47 65 60 57 40 34 38 29 29 30 31 31 31 32
81 76 70 61 64 76 97 89 98 95 91 81 98 97 86 61 58 69 62 64 58 56 45 39 49 58 58 53 66 66 63 66 68 63 44 51 71 43 32 28 25 29 40 31
82 77 77 64 67 70 86 98 90 98 87 93 96 92 81 66 66 74 60 58 60 47 56 64 69 79 81 77 77 70 72 66 70 72 60 98 46 29 29 33 29 26 25 23
97 83 78 69 66 69 94 97 87 100 91 84 78 86 88 82 65 63 60 59 54 59 66 96 100 99 97 92 73 69 64 67 100 98 97 49 41 29 30 33 34 26 28 25
100 92 80 76 70 70 90 99 97 88 84 77 67 77 84 93 95 96 74 59 56 67 98 100 100 100 97 100 97 71 56 65 84 100 99 87 49 30 25 28 46 24 24 25
100 99 82 75 69 72 88 98 91 99 99 64 89 94 79 76 86 96 100 97 90 82 100 100 97 87 53 90 91 97 99 100 98 97 94 57 30 28 29 53 38 26 26 24
98 95 81 69 70 82 98 96 94 94 98 98 93 98 99 68 80 87 100 95 98 100 99 90 99 100 91 72 62 80 91 96 96 97 100 94 33 32 44 36 36 32 29 28
95 88 95 84 76 81 98 100 95 100 98 99 96 98 100 98 64 62 90 79 91 95 99 88 90 90 75 69 83 52 83 65 68 63 60 40 37 32 33 36 33 33 31 33
86 84 84 96 83 83 91 98 100 100 98 98 99 99 98 100 88 74 84 96 87 94 88 83 82 83 53 69 62 61 46 42 56 52 44 38 39 36 34 33 33 30 31 33
83 78 75 86 98 97 100 100 99 99 99 100 95 99 99 100 87 88 83 80 86 88 91 97 93 83 50 58 53 50 48 43 52 56 42 37 37 35 33 31 32 31 30 33
100 95 90 87 96 100 100 99 92 99 95 99 99 99 99 99 99 99 96 85 89 97 100 100 100 82 65 54 44 45 37 46 55 54 43 42 40 37 38 37 32 31 32 36
89 99 100 100 100 100 100 100 100 100 96 97 96 97 99 100 100 98 97 98 98 97 96 89 68 62 59 67 64 40 39 39 44 48 44 41 41 40 34 29 31 32 30 29
83 94 96 97 99 100 99 99 98 100 95 98 96 90 95 99 99 100 98 94 95 89 94 85 60 53 59 58 63 36 38 38 38 37 36 37 34 31 30 26 26 30 28 28
41 38 79 93 96 98 99 100 100 98 98 99 90 91 95 99 98 98 99 98 94 88 71 61 62 55 50 58 30 35 36 36 35 32 29 23 26 24 27 27 26 27 29 29
33 25 36 67 72 69 84 74 57 72 91 87 72 73 92 87 77 74 70 59 73 73 74 62 61 67 61 32 30 32 32 30 32 35 32 35 35 33 34 36 37 40 44 45
25 48 46 64 58 32 40 60 86 87 85 82 86 63 87 80 69 63 56 48 51 59 55 47 50 35 29 23 27 33 44 47 52 50 55 54 55 57 56 51 49 48 46 43
49 53 71 63 50 61 52 62 53 43 62 81 96 69 78 78 76 61 52 50 45 50 53 51 44 40 36 44 63 78 83 82 83 79 84 86 88 82 73 62 55 48 46 52
39 55 59 57 52 48 59 59 48 45 54 64 73 74 63 77 62 50 54 49 52 49 44 50 45 50 46 68 83 93 98 96 92 93 95 99 99 99 93 77 59 58 63 74
67 50 49 45 51 68 54 68 53 64 59 66 64 72 62 68 64 65 54 70 62 57 70 50 40 49 72 81 87 95 99 98 99 100 98 98 98 100 99 96 83 74 68 60
56 49 80 64 72 67 78 80 86 81 62 53 58 74 65 62 69 64 74 63 59 64 62 48 55 58 74 78 88 86 86 91 94 99 97 95 98 98 96 72 61 63 65 66
68 58 78 76 84 87 96 90 85 93 73 64 66 62 54 58 85 57 63 80 66 49 47 67 54 66 83 96 96 99 100 98 100 98 96 93 95 94 98 98 98 100 99 100
77 69 73 78 80 92 95 82 78 68 82 67 50 54 64 63 56 59 62 47 50 49 69 74 79 85 95 99 100 99 99 99 98 96 92 89 98 99 99 99 100 100 93 80
60 93 98 89 81 86 98 88 63 66 66 77 48 53 42 47 52 47 39 49 62 83 87 92 95 98 99 100 100 96 94 96 100 97 95 89 90 97 99 99 99 99 98 98
Wind_Speed
44 43 44 42 40 36 33 30 9 24 31 15 4 20 13 18 22 22 18 14 20 23 25 27 24 23 25 25 26 33 27 11 14 19 18 19 21 19 21 10 19 19 15 17
41 41 42 42 40 39 33 22 17 26 36 15 7 4 10 25 25 23 18 14 24 17 21 17 20 23 18 15 23 25 23 7 10 10 9 11 19 21 21 21 11 19 12 6
38 41 42 41 40 40 35 18 5 15 21 21 17 10 13 18 36 28 21 18 20 17 17 16 20 15 16 16 23 24 26 15 19 13 14 13 23 22 26 22 17 17 22 17
38 41 41 40 41 42 38 19 6 5 7 11 15 23 23 26 15 21 29 18 23 19 17 20 16 18 12 9 24 15 18 13 20 18 14 5 14 23 25 28 28 19 26 25
39 41 40 40 41 43 36 9 3 11 5 20 8 23 27 31 21 19 27 11 22 24 17 15 15 20 12 14 16 17 14 7 8 15 16 14 15 19 23 23 27 27 28 30
40 41 40 41 42 44 22 26 14 6 7 10 11 8 18 36 28 28 31 29 25 23 25 24 21 11 9 9 12 13 10 7 6 9 14 14 13 24 22 22 22 23 23 27
41 41 42 42 42 47 26 23 23 6 10 9 7 11 21 27 32 23 31 38 23 24 22 23 15 11 10 11 9 8 5 7 6 8 4 6 18 19 22 27 26 24 24 26
40 40 42 42 42 43 35 25 22 7 7 5 12 13 19 15 31 25 26 35 34 33 21 4 5 3 1 6 14 19 21 17 4 5 6 12 17 18 17 15 22 23 25 26
42 39 40 41 41 40 41 23 27 19 9 12 17 14 19 13 8 12 13 30 29 29 4 2 6 4 7 7 9 5 15 12 8 4 6 13 19 21 17 8 17 15 18 20
35 35 37 38 39 38 41 32 35 10 6 22 9 3 15 21 15 5 0 7 8 24 4 3 5 7 7 9 11 8 5 4 10 7 7 9 9 8 12 12 6 3 8 14
32 32 34 34 35 36 41 32 26 20 9 4 6 9 11 32 23 9 8 6 3 1 6 7 3 4 7 10 15 11 13 10 6 7 5 7 15 13 13 3 4 1 2 5
29 28 31 32 31 35 35 25 33 27 7 3 9 7 7 8 36 25 21 11 7 7 4 3 5 4 6 11 7 16 10 12 10 11 8 6 4 18 10 3 5 3 4 3
31 29 30 31 34 34 35 22 29 23 11 4 10 10 9 2 17 18 9 4 13 10 4 2 2 4 7 8 13 12 10 16 9 9 11 6 12 5 9 6 6 6 7 7
23 26 30 28 33 34 34 26 29 19 8 3 1 5 5 6 20 17 12 25 15 14 10 4 2 3 5 6 9 12 5 12 10 11 4 8 12 10 11 10 9 9 7 7
17 30 26 25 26 38 34 20 23 28 5 2 2 5 18 6 14 17 20 26 21 9 4 2 2 2 3 3 1 5 6 8 11 8 12 11 14 14 11 11 10 8 8 7
30 27 24 28 30 35 33 8 23 26 18 5 2 4 13 19 21 25 25 24 17 8 6 3 5 5 4 5 6 6 12 7 9 4 11 12 11 15 12 11 9 8 7 7
11 12 15 15 14 25 14 6 17 26 19 5 4 3 5 8 15 16 21 16 11 7 4 2 4 6 6 3 4 11 13 12 11 15 16 14 12 12 10 8 8 8 6 4
13 18 22 23 21 19 21 25 21 18 8 4 3 3 3 6 3 4 6 7 5 5 4 4 5 7 4 3 8 20 17 17 14 12 8 5 9 8 7 6 7 9 10 11
9 9 9 8 5 7 9 15 14 13 2 3 2 5 4 4 10 11 6 3 3 2 3 3 8 4 4 7 17 18 16 13 11 9 8 8 8 8 9 10 11 11 11 11
4 4 1 4 3 8 10 4 4 3 4 5 3 5 5 5 4 3 3 3 3 3 3 7 3 4 7 9 14 14 10 9 9 9 9 10 10 9 9 10 11 11 10 8
5 4 4 4 9 3 2 3 4 3 3 4 5 9 7 5 4 4 1 3 3 4 4 4 5 6 10 13 12 10 8 7 6 5 4 4 6 8 9 9 10 9 9 8
8 5 6 5 4 4 4 3 2 3 3 4 5 11 9 5 4 2 2 2 3 3 8 4 5 5 17 15 12 10 9 8 7 6 6 5 6 6 10 10 10 9 9 11
6 4 4 5 5 4 2 3 2 3 3 5 9 7 6 5 3 2 1 2 3 8 4 4 3 14 20 17 15 11 10 9 8 6 5 5 5 6 9 9 14 13 13 13
3 3 4 4 2 4 3 5 4 2 6 14 14 4 3 3 2 2 3 3 4 4 6 6 7 18 19 16 13 13 12 10 8 6 6 6 6 5 5 9 12 14 15 14
3 4 3 3 1 3 2 2 3 1 11 12 8 4 4 3 3 2 4 4 4 5 5 4 14 19 16 14 14 13 11 11 9 8 7 6 7 6 6 7 8 9 11 13
3 4 4 5 3 2 1 5 9 7 5 3 1 2 3 2 4 4 4 5 4 4 4 11 17 16 13 13 13 12 11 9 9 9 9 7 8 7 8 9 12 13 12 11
3 3 4 2 7 5 2 0 4 5 2 1 1 3 2 2 3 4 3 2 3 7 10 14 14 13 14 15 14 12 10 9 8 10 10 10 9 8 9 9 10 10 10 9
Wind_Direction
198 200 203 203 202 200 195 196 207 211 209 201 184 192 170 202 193 212 205 201 203 190 189 197 190 218 205 200 198 197 202 208 191 206 200 227 206 208 210 213 218 232 260 263
197 199 201 201 199 194 188 201 210 217 210 203 194 187 200 185 194 196 213 212 210 217 191 192 196 206 197 194 188 195 186 220 180 198 182 212 225 214 219 220 241 243 222 234
196 198 199 200 197 194 188 192 193 213 241 217 179 168 188 190 200 197 200 222 208 218 200 209 199 184 180 194 196 187 188 198 199 194 201 201 210 220 215 215 225 238 243 251
197 198 200 198 196 193 188 195 194 223 203 245 231 199 174 189 184 208 188 217 215 185 186 190 206 165 152 196 182 176 198 225 207 209 229 233 197 217 223 222 225 225 246 247
203 199 201 198 196 192 192 189 165 204 260 192 241 192 200 187 171 175 191 193 211 196 194 177 187 181 170 173 176 192 214 198 215 225 244 243 245 223 221 230 236 239 248 254
202 201 201 200 195 190 196 210 209 201 289 214 190 206 206 199 191 187 184 192 197 205 210 202 195 121 78 138 167 189 187 206 173 235 229 245 251 233 235 237 233 235 241 254
199 199 201 199 197 197 196 194 193 204 237 276 194 185 213 200 186 182 194 196 195 195 133 111 106 144 154 167 171 194 199 229 210 248 130 214 245 234 228 241 249 250 253 256
196 198 199 199 201 201 200 201 198 194 232 250 242 206 223 223 194 196 188 192 183 163 129 122 118 99 106 179 198 198 205 206 164 171 198 264 279 248 229 236 248 243 246 255
194 195 199 200 202 203 199 198 190 202 229 242 278 241 197 216 215 179 213 190 190 155 99 199 152 163 139 176 158 292 207 232 205 146 211 226 245 240 251 215 253 250 257 263
189 195 199 200 203 203 200 206 212 194 193 226 285 264 215 200 194 168 11 146 169 157 132 147 171 195 211 174 181 172 184 167 196 189 229 243 245 133 136 193 250 9 295 265
189 193 197 199 201 198 196 203 207 203 201 267 255 279 302 207 183 185 148 96 359 128 161 191 114 152 185 197 206 182 177 176 196 199 230 234 237 164 212 307 47 22 272 263
192 193 193 195 198 199 196 202 216 213 208 256 347 292 316 273 204 198 169 155 140 186 110 206 127 180 161 185 187 187 190 196 190 198 212 208 256 224 235 277 257 194 204 159
194 188 188 194 196 194 197 197 186 203 210 306 279 284 284 158 180 187 144 192 157 172 152 107 102 159 190 186 214 180 221 205 215 198 217 219 216 186 184 187 179 156 145 129
182 180 186 186 191 193 190 188 185 185 129 179 90 22 297 109 175 170 192 164 124 120 102 73 132 158 239 219 234 233 189 164 204 216 215 172 207 185 171 160 158 150 139 148
98 180 178 181 186 188 192 188 190 197 184 86 119 18 34 53 123 137 135 140 134 111 92 116 136 141 118 9 297 237 177 182 203 211 199 205 192 172 164 163 166 159 152 144
54 107 155 164 172 180 188 180 191 184 172 111 110 65 35 99 128 120 121 126 105 96 112 108 147 148 204 177 197 211 188 214 211 181 173 188 162 173 170 180 176 177 174 181
73 84 60 83 117 152 165 165 164 155 127 132 140 106 19 48 79 81 79 82 83 89 88 115 161 154 176 188 201 149 154 148 142 146 141 149 167 174 179 188 192 188 205 229
64 80 92 89 73 78 104 110 104 107 93 88 100 100 130 26 90 82 77 90 95 58 110 132 139 132 166 202 154 152 157 147 153 164 177 169 178 195 199 212 221 232 244 251
67 90 88 73 70 84 103 121 93 86 65 117 160 148 119 69 96 107 92 121 74 123 129 121 155 163 194 179 150 158 166 171 164 160 168 173 189 202 212 221 228 235 243 248
66 96 110 75 23 111 127 113 152 148 89 43 62 98 104 124 128 85 110 76 134 117 62 141 214 173 132 145 152 151 158 161 162 177 188 199 207 216 226 228 226 228 234 228
48 50 46 15 52 57 55 55 28 41 68 66 46 107 105 58 85 108 7 133 176 153 151 199 191 180 173 159 151 151 146 140 144 158 160 184 212 220 220 215 208 208 209 209
46 65 37 20 22 31 68 53 91 34 83 121 136 134 125 103 153 157 188 123 207 126 159 202 191 133 154 162 158 157 152 154 157 166 178 195 204 216 217 208 197 197 200 202
10 21 34 16 357 36 41 132 109 105 118 149 138 123 134 147 124 83 171 145 108 141 181 202 147 152 150 162 159 158 157 157 160 157 168 174 169 180 174 195 198 200 203 214
40 40 39 11 47 40 8 14 37 89 145 138 132 114 108 141 86 178 109 81 172 208 187 190 150 153 163 159 161 156 153 154 152 154 170 176 180 182 195 203 206 209 210 205
53 40 57 61 57 46 44 84 138 160 139 142 141 138 137 119 122 180 129 174 202 218 201 130 151 157 152 155 158 155 152 151 153 159 161 166 169 176 178 177 170 174 178 179
54 56 113 122 139 106 81 111 144 146 121 132 96 133 125 181 146 170 200 184 200 168 92 118 129 144 155 157 159 159 155 154 154 158 158 162 161 166 163 159 159 158 165 168
50 71 48 15 79 90 70 93 154 162 165 209 193 156 180 144 218 204 187 194 75 123 121 140 147 150 153 160 162 164 160 156 150 156 165 166 153 141 140 151 158 167 173 178